Weather History for KFUL - March, 2015

Change the Weather History Date:

Friday, March 6, 2015

  Actual Average Record
Temperature  
Mean Temperature 67 °F 60 °F  
Max Temperature 88 °F 69 °F 88 °F (1979)
Min Temperature 46 °F 50 °F 43 °F (2000)
Degree Days  
Heating Degree Days 0 6  
Month to date heating degree days 33 36  
Since 1 July heating degree days 396 958  
Cooling Degree Days 2 1  
Month to date cooling degree days 2 3  
Year to date cooling degree days 53 12  
Growing Degree Days 16 (Base 50)    
Moisture  
Dew Point 25 °F    
Average Humidity 29    
Maximum Humidity 53    
Minimum Humidity 5    
Precipitation  
Precipitation 0.00 in 0.13 in 0.33 in (2001)
Month to date precipitation 0.39 0.89  
Year to date precipitation 1.51 7.17  
Snow  
Snow 0.00 in - - ()
Month to date snowfall 0.0  
Year to date snowfall 0.0  
Since 1 July snowfall 0.0  
Snow Depth 0.00 in    
Sea Level Pressure  
Sea Level Pressure 30.06 in    
Wind  
Wind Speed 2 mph (NW)    
Max Wind Speed 10 mph    
Max Gust Speed 14 mph    
Visibility 10 miles    
Events      
T = Trace of Precipitation, MM = Missing Value Source: NWS Daily Summary

Daily Weather History Graph

Daily Weather History Graph

Search for Another Location

Airport or City:

Trip Planner

Search our weather history database for the weather conditions in past years. The results will help you decide how hot, cold, wet, or windy it might be!

Date:

Astronomy

Mar. 06, 2015 Rise Set
Actual Time 6:14 AM PST 5:52 PM PST
Civil Twilight 5:49 AM PST 6:17 PM PST
Nautical Twilight 5:20 AM PST 6:46 PM PST
Astronomical Twilight 4:51 AM PST 7:15 PM PST
Moon 6:59 PM PST (3/6) 6:36 AM PST (3/6)
Length of Visible Light 12h 27m
Length of Day
11h 38m
Full, 99% of the Moon is Illuminated
Mar 6
Full
Mar 13
Last Quarter
Mar 20
New
Mar 27
First Quarter
Apr 4
Full

Hourly Weather History & Observations

Time (PST) Temp. Dew Point Humidity Pressure Visibility Wind Dir Wind Speed Gust Speed Precip Events Conditions
12:53 AM 54.0 °F 28.0 °F 37% 30.13 in 10.0 mi NW 4.6 mph - N/A   Clear
1:53 AM 51.1 °F 30.0 °F 44% 30.13 in 10.0 mi Calm Calm - N/A   Clear
2:53 AM 51.1 °F 30.0 °F 44% 30.11 in 10.0 mi Calm Calm - N/A   Clear
3:53 AM 48.9 °F 30.0 °F 48% 30.11 in 10.0 mi Calm Calm - N/A   Clear
4:53 AM 46.9 °F 30.0 °F 52% 30.12 in 10.0 mi Calm Calm - N/A   Clear
5:53 AM 46.9 °F 30.0 °F 52% 30.12 in 10.0 mi Calm Calm - N/A   Clear
6:53 AM 48.9 °F 30.9 °F 50% 30.12 in 10.0 mi Calm Calm - N/A   Clear
7:53 AM 60.1 °F 32.0 °F 35% 30.14 in 10.0 mi Calm Calm - N/A   Clear
8:53 AM 71.1 °F 28.0 °F 20% 30.14 in 10.0 mi NW 3.5 mph - N/A   Clear
9:53 AM 79.0 °F 19.0 °F 11% 30.12 in 10.0 mi Variable 4.6 mph - N/A   Clear
10:53 AM 82.0 °F 19.9 °F 10% 30.09 in 10.0 mi North - - N/A   Clear
11:53 AM 82.9 °F 18.0 °F 9% 30.06 in 10.0 mi Variable 4.6 mph - N/A   Clear
12:53 PM 84.9 °F 16.0 °F 8% 30.03 in 10.0 mi Calm Calm - N/A   Clear
1:53 PM 87.1 °F 14.0 °F 7% 30.00 in 10.0 mi Variable 4.6 mph - N/A   Clear
2:53 PM 87.1 °F 10.9 °F 6% 29.98 in 10.0 mi NW 5.8 mph - N/A   Clear
3:53 PM 86.0 °F 10.9 °F 6% 29.96 in 10.0 mi NW 6.9 mph - N/A   Clear
4:53 PM 82.9 °F 15.1 °F 8% 29.96 in 10.0 mi WNW 5.8 mph - N/A   Clear
5:53 PM 78.1 °F 24.1 °F 14% 29.96 in 10.0 mi West 4.6 mph - N/A   Clear
6:53 PM 73.0 °F 27.0 °F 18% 29.99 in 10.0 mi Calm Calm - N/A   Clear
7:53 PM 70.0 °F 30.9 °F 24% 30.00 in 10.0 mi ENE 4.6 mph - N/A   Clear
8:53 PM 66.0 °F 32.0 °F 28% 30.01 in 10.0 mi Calm Calm - N/A   Clear
9:53 PM 64.0 °F 33.1 °F 31% 30.02 in 10.0 mi NE 3.5 mph - N/A   Clear
10:53 PM 61.0 °F 30.9 °F 32% 30.01 in 10.0 mi Calm Calm - N/A   Clear
11:53 PM 59.0 °F 33.1 °F 38% 30.01 in 10.0 mi Calm Calm - N/A   Clear